Theta_e
298 292 289 293 294 294 292 291 290 294 298 295 294 294 295 299 299 298 298 298 297 300 302 302 302 302 301 302 301 302 302 303 305 306 306 307 308 310 311 312 313 311 310 309
293 289 296 298 298 295 293 290 290 294 297 294 292 292 296 298 298 297 296 296 298 297 299 299 299 299 299 298 299 300 300 302 302 303 306 306 307 308 309 310 310 311 309 307
292 296 299 297 294 293 292 290 291 291 293 293 290 289 293 298 298 298 298 298 297 296 296 296 296 296 297 296 297 298 298 298 300 301 302 302 303 302 302 302 304 307 308 306
296 298 295 294 293 294 289 294 292 291 287 284 291 281 290 295 295 295 296 294 294 294 295 295 294 293 294 295 296 297 297 297 298 298 298 297 297 297 299 300 301 303 305 305
294 292 291 291 292 294 291 292 290 289 286 285 287 282 288 293 291 291 292 293 293 293 293 292 293 293 293 294 293 294 294 294 296 295 295 295 294 296 296 297 297 299 300 302
293 293 292 293 294 293 293 290 290 289 286 280 287 286 286 288 290 290 292 292 293 293 293 293 293 293 291 292 292 292 292 292 292 293 294 292 291 292 292 293 294 295 297 297
292 292 293 294 289 291 289 286 281 280 278 279 289 284 288 293 295 292 292 292 293 293 292 291 291 291 290 290 290 291 291 290 291 291 292 292 292 291 291 291 292 292 292 294
286 284 291 293 291 290 289 289 282 275 277 281 286 281 288 293 294 294 293 292 291 290 289 288 289 289 290 290 289 290 290 289 289 289 290 291 292 291 291 291 291 291 292 292
286 286 293 293 293 293 289 286 291 283 277 276 282 287 292 294 292 292 291 290 288 287 287 287 287 287 287 287 287 288 288 288 288 288 289 289 289 289 290 289 290 290 291 292
291 285 293 291 292 291 290 291 283 283 275 270 279 279 283 289 288 289 288 287 287 287 286 285 285 285 285 286 286 286 287 286 286 286 286 287 288 288 287 288 288 288 289 289
292 289 287 291 288 288 287 285 286 287 284 278 276 279 289 287 287 285 286 287 286 285 285 283 284 284 285 284 284 284 285 285 285 284 284 285 285 285 284 284 284 285 286 288
294 290 281 285 291 292 290 287 287 282 280 282 281 281 292 288 287 287 286 286 285 285 285 283 283 283 283 283 284 283 283 284 284 284 283 284 285 284 282 282 282 283 283 285
291 284 275 276 282 289 286 287 288 286 284 279 277 280 292 289 286 287 285 284 284 281 282 284 282 282 283 283 283 283 283 283 284 283 282 282 282 282 282 281 281 282 281 282
293 285 279 275 279 285 281 283 284 283 277 277 278 280 286 287 286 284 283 283 282 281 281 282 282 281 282 283 283 283 283 283 283 283 282 282 281 282 283 281 280 280 280 280
288 279 283 284 284 282 280 280 280 278 279 274 277 278 282 284 284 280 280 280 280 280 281 281 281 281 281 281 281 282 282 283 283 282 282 282 281 281 282 280 279 280 279 280
283 273 277 269 279 279 277 279 279 279 280 279 279 278 283 279 279 277 278 278 279 279 280 281 281 281 281 281 281 282 282 282 282 281 281 282 282 281 281 281 279 279 279 278
279 274 268 265 276 273 267 274 276 278 279 278 274 275 277 277 277 276 276 278 278 279 280 280 280 281 281 281 282 281 281 281 280 281 282 282 282 281 281 281 280 279 278 277
275 270 270 263 264 257 273 278 276 275 276 276 276 275 276 276 277 277 279 278 278 280 280 280 281 281 282 282 281 280 280 279 280 280 280 281 280 280 280 280 279 279 278 276
279 276 265 260 259 269 273 274 273 273 270 274 275 276 277 277 277 276 280 280 279 280 281 281 281 281 281 280 279 278 278 278 278 277 278 278 278 277 278 278 278 278 277 276
276 277 271 261 259 256 268 273 276 275 264 272 272 272 273 276 270 274 279 280 280 280 280 279 278 278 277 277 277 275 274 273 273 273 274 274 274 272 271 273 274 276 276 275
264 264 268 268 266 266 275 276 277 263 267 276 276 274 274 273 275 278 279 279 279 278 278 278 276 275 275 274 273 271 271 270 271 270 269 269 269 267 267 268 269 269 270 271
266 262 261 262 260 263 277 274 270 275 277 278 277 277 277 277 278 278 277 276 276 275 275 274 273 272 272 272 270 268 267 269 268 266 265 263 262 263 263 263 263 264 266 266
265 270 266 268 267 276 277 275 279 279 278 278 277 278 278 277 276 275 274 274 273 273 273 272 270 269 269 269 268 265 266 266 264 262 261 260 260 261 261 260 260 260 261 262
273 275 270 269 274 276 278 279 279 279 279 279 279 277 275 274 274 274 273 273 271 271 270 269 267 266 265 266 266 264 264 264 261 259 259 260 259 259 259 260 261 260 260 260
274 275 271 271 276 277 278 279 280 280 281 278 276 275 274 273 272 271 270 269 269 268 268 266 265 264 264 264 263 262 262 260 259 259 259 259 259 259 259 260 259 260 261 262
277 275 272 271 277 276 277 279 280 277 278 277 274 273 273 271 269 269 267 267 266 265 265 264 263 262 262 261 261 260 260 259 258 257 258 258 258 259 259 259 259 264 266 267
Wind_Speed
6 4 7 11 11 14 8 10 12 10 9 12 11 10 8 16 17 12 9 6 5 16 17 19 19 19 18 19 18 18 13 7 4 3 2 2 1 1 1 2 3 5 5 6
3 7 13 9 8 8 7 11 13 9 6 6 10 12 15 18 15 7 5 5 8 15 17 18 17 16 16 14 14 17 16 15 9 3 1 1 1 2 2 2 4 4 5 7
11 8 10 6 6 9 10 9 11 13 7 6 8 9 10 10 7 8 7 13 17 18 16 15 16 15 13 15 14 14 14 14 13 11 5 4 4 4 4 3 2 3 5 5
11 2 3 8 9 8 12 5 3 4 3 3 7 6 5 14 1 16 15 16 14 15 14 12 12 14 15 13 12 14 15 16 14 14 9 7 4 3 2 2 3 4 5 6
3 5 4 5 6 2 2 2 3 4 5 5 7 4 7 8 12 9 11 14 13 12 12 12 12 12 11 11 10 10 12 13 13 12 12 9 9 6 5 4 7 6 4 5
12 2 3 5 3 2 3 2 6 6 3 2 12 8 5 3 10 8 10 11 11 10 9 9 8 8 8 8 9 9 11 12 11 10 8 8 8 8 6 6 5 5 4 4
7 13 5 1 2 2 2 1 4 3 2 6 11 6 6 5 2 13 14 12 10 9 7 7 7 6 6 9 9 8 10 11 12 12 11 9 9 8 8 7 5 7 4 4
6 7 10 7 5 2 6 2 4 5 3 8 7 5 6 6 15 16 14 11 10 9 7 7 8 7 7 7 6 8 8 6 8 9 9 9 9 7 6 7 7 7 6 6
4 4 5 4 3 1 3 3 2 2 1 2 6 6 7 6 14 12 12 10 8 7 6 7 7 6 6 5 7 6 7 7 5 4 5 6 5 6 7 8 6 7 8 9
2 6 6 4 2 1 2 3 3 1 3 6 7 3 5 7 11 9 8 7 6 6 5 5 5 5 4 5 5 7 6 5 5 6 6 6 6 7 7 6 7 7 8 11
3 1 5 7 3 3 0 2 4 3 4 8 11 7 8 11 10 8 5 4 5 6 6 6 6 6 6 6 6 6 7 7 6 6 6 6 6 4 5 5 6 6 7 9
4 2 4 8 8 11 13 13 11 5 5 5 5 10 9 11 12 9 4 3 2 1 2 4 5 6 7 7 7 7 6 5 5 4 5 6 6 6 5 6 7 7 7 7
1 2 4 11 3 6 6 3 2 4 1 12 11 13 8 7 7 5 3 3 2 4 4 1 2 2 4 5 6 6 7 7 7 7 6 7 6 5 5 6 6 7 6 7
4 3 5 9 8 5 5 8 8 1 6 10 17 20 17 19 17 6 5 2 3 3 4 3 3 2 3 3 4 5 6 6 6 7 7 10 8 8 8 6 6 7 6 7
1 4 6 10 9 4 7 15 17 14 16 13 24 22 21 15 11 5 6 7 6 6 6 5 5 5 6 6 6 6 6 6 6 7 7 10 8 8 10 9 8 8 7 8
2 3 3 5 6 8 13 20 16 18 20 18 18 23 11 7 5 7 7 6 6 7 6 5 5 6 7 7 7 6 6 7 7 7 9 12 12 14 14 12 10 9 9 9
6 3 3 7 2 6 11 17 20 18 18 15 17 9 3 4 4 4 3 5 8 7 6 8 7 6 6 7 6 5 5 5 7 8 12 13 13 14 16 16 16 14 12 8
5 5 3 5 6 3 9 5 3 5 6 3 1 3 4 2 2 5 5 7 6 7 8 9 9 10 9 6 6 6 6 7 9 13 13 14 14 16 16 17 17 17 13 12
9 5 2 4 6 8 17 4 3 3 5 4 6 2 2 2 8 9 7 3 5 6 7 6 6 7 9 7 7 10 12 11 12 14 14 13 12 14 16 18 20 18 15 15
1 6 6 2 5 9 6 3 5 4 5 3 6 3 1 3 5 9 5 3 6 6 4 6 7 9 9 10 11 13 14 16 17 16 16 16 16 16 17 18 19 17 17 17
3 1 12 12 9 7 4 8 5 5 9 5 6 6 6 5 8 7 5 5 5 5 7 8 7 8 9 11 13 15 16 17 16 16 16 16 14 15 17 19 17 18 17 15
8 7 5 1 3 9 2 5 6 6 5 7 7 8 7 7 7 4 6 6 7 7 9 9 10 11 11 12 13 16 17 17 17 17 17 16 16 14 14 18 19 19 19 21
3 9 7 10 8 4 6 7 8 5 6 8 7 8 4 3 3 4 4 6 6 8 9 8 9 13 12 12 11 16 17 17 17 17 17 17 16 15 14 16 17 15 16 16
6 6 3 3 6 15 15 10 8 7 8 8 5 3 3 2 2 3 4 6 6 7 9 9 12 14 15 12 13 14 16 17 17 18 18 16 16 16 15 12 12 12 13 13
8 4 8 6 13 14 14 13 14 16 14 4 5 3 3 1 1 3 4 5 6 8 8 8 11 13 16 15 15 14 15 15 17 17 17 16 14 15 15 14 13 13 14 16
12 19 10 11 13 11 12 8 6 3 5 6 5 4 3 2 2 3 4 5 6 7 8 10 11 12 14 15 16 15 14 15 16 16 13 13 13 13 14 14 14 24 30 33
Wind_Direction
193 204 206 229 232 239 275 279 282 282 293 280 279 294 295 268 282 285 294 262 95 86 67 61 48 38 34 28 29 20 18 21 68 69 73 19 313 285 238 219 214 199 194 186
136 234 234 273 290 296 280 288 286 274 278 324 305 295 282 282 274 251 77 58 97 78 62 51 48 42 40 33 26 34 23 20 16 27 37 77 87 234 192 197 215 229 208 187
226 254 323 294 269 281 263 262 278 293 319 294 278 272 260 274 265 91 57 74 73 71 66 53 45 37 32 36 29 42 35 25 14 10 16 16 5 9 2 338 305 222 222 206
256 206 269 277 252 249 273 270 308 324 2 261 41 281 307 281 77 81 80 68 62 67 65 58 50 45 36 31 28 34 33 26 18 14 19 23 8 341 306 267 275 238 219 216
276 158 200 235 235 173 220 45 316 270 262 313 250 252 247 220 95 80 77 75 71 64 63 54 47 47 36 27 24 31 37 33 20 24 22 21 9 349 339 343 349 332 280 216
256 94 289 241 49 131 56 304 260 241 212 255 240 193 308 67 137 122 105 88 81 74 64 60 59 48 37 25 17 23 33 30 25 17 21 31 15 342 350 340 342 336 325 272
302 218 186 224 259 97 117 322 305 327 177 205 30 3 227 106 99 138 117 100 86 73 68 74 64 54 54 31 22 18 23 20 15 8 2 14 15 359 346 337 341 339 330 330
276 297 155 165 232 115 184 224 182 241 249 290 4 252 264 75 89 92 95 92 76 62 56 50 49 40 48 51 36 42 31 45 24 359 342 3 6 357 342 353 348 339 332 315
297 264 17 180 94 131 85 177 353 291 309 4 215 247 280 111 89 87 86 75 68 65 60 51 48 43 41 43 41 36 40 34 38 352 342 13 353 351 350 351 344 340 331 328
329 297 244 115 138 204 137 350 310 256 239 233 264 259 234 47 110 90 68 55 48 45 45 52 54 47 36 33 32 30 35 22 26 10 7 3 350 352 339 336 337 341 333 327
55 249 277 358 192 239 3 252 203 237 232 258 273 265 111 106 87 84 85 86 31 8 11 19 20 18 33 29 20 12 10 6 8 7 353 340 325 331 324 326 329 333 324 322
41 210 260 237 308 300 287 273 270 250 247 219 234 261 83 106 117 114 107 121 93 258 32 42 4 360 5 11 5 352 354 355 348 347 334 316 314 315 328 324 320 322 314 309
60 297 336 325 294 46 49 345 331 21 139 252 270 270 352 128 113 80 338 126 126 40 334 184 288 355 357 346 339 335 339 331 332 329 325 302 294 292 288 290 298 296 296 294
77 184 190 238 252 60 295 295 284 101 270 285 267 280 278 296 319 74 73 40 69 14 325 318 254 313 305 296 286 301 304 309 310 307 313 312 309 314 308 284 283 276 278 285
124 233 201 251 286 313 267 270 274 259 258 246 271 279 279 293 303 71 67 41 13 344 332 337 332 266 249 245 248 253 257 263 272 282 293 293 291 286 293 285 284 283 286 284
360 254 79 286 250 256 268 260 260 256 254 253 261 269 299 82 76 56 41 7 329 300 292 302 309 311 299 274 250 242 251 260 264 270 270 280 291 298 296 291 274 270 272 272
170 149 98 260 40 14 297 255 247 254 259 265 267 277 302 120 94 57 357 314 299 318 347 334 318 303 300 291 274 297 303 306 289 267 271 269 272 275 279 286 287 281 278 270
159 126 132 250 61 242 244 16 286 255 283 321 275 179 179 185 5 351 331 301 340 338 327 320 315 314 316 334 340 324 306 299 295 290 284 278 274 269 269 270 270 270 275 275
221 184 243 179 199 290 305 306 46 150 271 197 208 290 139 19 352 312 294 327 321 311 305 314 339 331 328 337 339 329 316 311 306 302 301 296 291 289 285 280 277 272 271 270
278 187 181 147 201 222 240 173 125 111 279 253 117 120 141 298 288 286 279 322 308 324 343 340 342 337 334 334 339 330 319 313 309 313 315 324 328 336 334 327 317 298 279 272
93 348 213 230 238 273 189 148 152 100 258 190 172 196 215 230 235 254 314 336 353 356 350 344 343 322 324 336 331 316 314 313 320 326 319 315 319 318 311 307 301 302 307 299
154 159 209 186 252 269 96 108 182 216 180 192 206 223 245 258 270 315 348 349 351 337 336 340 328 322 328 328 325 316 312 317 319 315 313 311 308 304 300 296 293 290 288 285
225 198 187 179 205 212 205 197 226 263 264 280 278 268 240 243 282 330 333 330 321 327 327 335 326 314 316 325 322 310 312 315 313 311 308 306 303 299 294 292 291 291 288 284
243 240 216 49 252 259 269 264 247 264 265 274 254 152 123 230 316 313 310 310 318 320 326 330 325 314 313 321 316 309 311 314 312 308 305 304 300 297 293 287 284 284 283 282
203 157 225 243 244 264 264 260 266 268 271 182 130 132 128 98 257 291 299 307 313 318 325 325 312 307 308 315 310 312 313 313 307 304 301 299 294 293 293 285 283 278 273 273
223 235 236 241 250 247 266 265 253 188 222 170 153 135 120 110 297 323 300 311 313 317 319 308 306 305 305 308 307 308 312 307 303 301 299 296 295 293 291 290 286 280 285 288